RYE681 LEMD-LIPZ

Flight info

Callsign RYE681
Flight time 1h 55m
Altitude 40000
Route PINAR N870 BCN M985 LUMAS DCT NEVIX DCT ODIXU DCT ADITA DCT RAPED DCT PIGOS DCT EKSID DCT NOSTA DCT NOPMU DCT BOA DCT SUKOM Q125 NIMUM Z43 OTGIG
Aircraft BBJ2/M-SDE2E3FGHIRWXY/LB1

Departure

Time 2026-05-07 12:09
Airport Adolfo Suárez Madrid–Barajas Airport (LEMD)

Arrival

Time 2026-05-07 14:05
Airport Venice Marco Polo Airport (LIPZ)
Time Latitude Longitude Altitude Speed Heading
2026-05-07 11:42 40.49043 -3.58962 2021 ft 0 kts 271°
2026-05-07 11:44 40.48929 -3.58959 2028 ft 0 kts 271°
2026-05-07 11:48 40.49189 -3.58960 2021 ft 0 kts 271°
2026-05-07 12:01 40.49189 -3.58947 2021 ft 4 kts 268°
2026-05-07 12:02 40.49190 -3.58929 2031 ft 4 kts 259°
2026-05-07 12:02 40.49198 -3.58897 2029 ft 4 kts 231°
2026-05-07 12:02 40.49216 -3.58881 2031 ft 2 kts 180°
2026-05-07 12:02 40.49218 -3.58881 2021 ft 1 kts 180°
2026-05-07 12:05 40.49215 -3.58878 2021 ft 1 kts 153°
2026-05-07 12:05 40.49215 -3.58866 2021 ft 2 kts 84°
2026-05-07 12:06 40.49218 -3.58845 2021 ft 6 kts 78°
2026-05-07 12:06 40.49238 -3.58760 2024 ft 11 kts 86°
2026-05-07 12:06 40.49241 -3.58661 2021 ft 11 kts 88°
2026-05-07 12:06 40.49241 -3.58544 2013 ft 15 kts 90°
2026-05-07 12:07 40.49241 -3.58386 2010 ft 19 kts 90°
2026-05-07 12:07 40.49242 -3.58204 2006 ft 21 kts 90°
2026-05-07 12:07 40.49243 -3.58005 2000 ft 23 kts 90°
2026-05-07 12:07 40.49243 -3.57792 1992 ft 23 kts 90°
2026-05-07 12:08 40.49257 -3.57592 1986 ft 21 kts 68°
2026-05-07 12:08 40.49361 -3.57469 1984 ft 20 kts 15°
2026-05-07 12:08 40.49456 -3.57457 1982 ft 0 kts 359°
2026-05-07 12:08 40.49485 -3.57457 1983 ft 20 kts 359°
2026-05-07 12:09 40.49877 -3.57457 1984 ft 95 kts
2026-05-07 12:09 40.50765 -3.57463 2001 ft 158 kts
2026-05-07 12:09 40.51924 -3.57455 2595 ft 167 kts
2026-05-07 12:09 40.53072 -3.57429 3567 ft 163 kts
2026-05-07 12:10 40.54253 -3.57394 4154 ft 182 kts
2026-05-07 12:10 40.55656 -3.57211 4258 ft 219 kts 15°
2026-05-07 12:10 40.57200 -3.56615 4466 ft 246 kts 19°
2026-05-07 12:10 40.58892 -3.55979 5074 ft 256 kts 17°
2026-05-07 12:11 40.60571 -3.55385 6156 ft 248 kts 17°
2026-05-07 12:11 40.62261 -3.54762 6889 ft 254 kts 18°
2026-05-07 12:11 40.63991 -3.54170 7685 ft 259 kts 10°
2026-05-07 12:11 40.65796 -3.53940 8549 ft 263 kts
2026-05-07 12:12 40.67637 -3.53823 9428 ft 266 kts
2026-05-07 12:12 40.69461 -3.53555 10270 ft 269 kts 18°
2026-05-07 12:12 40.71056 -3.52288 10959 ft 277 kts 48°
2026-05-07 12:12 40.72307 -3.50159 11204 ft 305 kts 57°
2026-05-07 12:13 40.73528 -3.47773 11510 ft 329 kts 57°
2026-05-07 12:13 40.74822 -3.45235 12113 ft 338 kts 57°
2026-05-07 12:13 40.76147 -3.42640 12736 ft 343 kts 57°
2026-05-07 12:13 40.77508 -3.39968 13052 ft 349 kts 57°
2026-05-07 12:14 40.78851 -3.37342 13987 ft 349 kts 57°
2026-05-07 12:14 40.80210 -3.34699 14989 ft 348 kts 57°
2026-05-07 12:14 40.81596 -3.31991 15757 ft 355 kts 57°
2026-05-07 12:14 40.82979 -3.29316 16571 ft 359 kts 57°
2026-05-07 12:15 40.84393 -3.26584 17397 ft 363 kts 57°
2026-05-07 12:15 40.85649 -3.23692 18148 ft 365 kts 72°
2026-05-07 12:15 40.86351 -3.20477 18934 ft 367 kts 78°
2026-05-07 12:15 40.86976 -3.17180 19680 ft 371 kts 79°
2026-05-07 12:16 40.87593 -3.13846 20391 ft 376 kts 79°
2026-05-07 12:16 40.88224 -3.10478 21274 ft 373 kts 79°
2026-05-07 12:16 40.88847 -3.07210 22420 ft 363 kts 79°
2026-05-07 12:16 40.89469 -3.03987 23253 ft 362 kts 79°
2026-05-07 12:17 40.90097 -3.00746 23830 ft 369 kts 79°
2026-05-07 12:17 40.90742 -2.97420 24378 ft 374 kts 79°
2026-05-07 12:17 40.91393 -2.94068 24965 ft 378 kts 79°
2026-05-07 12:17 40.92052 -2.90684 25550 ft 382 kts 79°
2026-05-07 12:18 40.92716 -2.87272 26091 ft 386 kts 79°
2026-05-07 12:18 40.93388 -2.83812 26630 ft 390 kts 79°
2026-05-07 12:18 40.94064 -2.80322 27143 ft 393 kts 79°
2026-05-07 12:18 40.94746 -2.76799 27634 ft 397 kts 80°
2026-05-07 12:19 40.95432 -2.73245 28124 ft 401 kts 80°
2026-05-07 12:19 40.96126 -2.69652 28617 ft 405 kts 80°
2026-05-07 12:19 40.96823 -2.66030 29107 ft 408 kts 80°
2026-05-07 12:19 40.97523 -2.62384 29583 ft 411 kts 80°
2026-05-07 12:20 40.98232 -2.58691 29980 ft 416 kts 80°
2026-05-07 12:20 40.98949 -2.54974 30376 ft 420 kts 80°
2026-05-07 12:20 40.99676 -2.51216 30812 ft 422 kts 81°
2026-05-07 12:20 41.00405 -2.47441 31239 ft 424 kts 80°
2026-05-07 12:21 41.01138 -2.43649 31631 ft 427 kts 80°
2026-05-07 12:21 41.01873 -2.39825 31972 ft 430 kts 81°
2026-05-07 12:21 41.02612 -2.35963 32324 ft 434 kts 81°
2026-05-07 12:21 41.03349 -2.32077 32702 ft 436 kts 81°
2026-05-07 12:22 41.04074 -2.28226 33060 ft 438 kts 81°
2026-05-07 12:22 41.04819 -2.24257 33400 ft 440 kts 81°
2026-05-07 12:22 41.05560 -2.20305 33719 ft 443 kts 81°
2026-05-07 12:22 41.06305 -2.16329 34048 ft 446 kts 81°
2026-05-07 12:23 41.07054 -2.12334 34362 ft 448 kts 81°
2026-05-07 12:23 41.07802 -2.08327 34659 ft 450 kts 81°
2026-05-07 12:23 41.08555 -2.04291 34924 ft 452 kts 80°
2026-05-07 12:23 41.09314 -2.00231 35180 ft 455 kts 80°
2026-05-07 12:24 41.10065 -1.96204 35437 ft 457 kts 80°
2026-05-07 12:24 41.10838 -1.92057 35692 ft 459 kts 80°
2026-05-07 12:24 41.11596 -1.87985 35921 ft 461 kts 80°
2026-05-07 12:24 41.12364 -1.83846 36156 ft 464 kts 80°
2026-05-07 12:25 41.13135 -1.79680 36375 ft 466 kts 80°
2026-05-07 12:25 41.13908 -1.75495 36588 ft 469 kts 80°
2026-05-07 12:25 41.14683 -1.71291 36852 ft 469 kts 80°
2026-05-07 12:25 41.15456 -1.67098 37251 ft 466 kts 80°
2026-05-07 12:26 41.15973 -1.64285 37491 ft 465 kts 80°
2026-05-07 12:26 41.16739 -1.60109 37727 ft 466 kts 80°
2026-05-07 12:26 41.17503 -1.55925 37898 ft 468 kts 80°
2026-05-07 12:26 41.18259 -1.51773 38087 ft 469 kts 80°
2026-05-07 12:27 41.19034 -1.47511 38321 ft 470 kts 80°
2026-05-07 12:27 41.19790 -1.43351 38578 ft 469 kts 80°
2026-05-07 12:27 41.20551 -1.39140 38796 ft 469 kts 80°
2026-05-07 12:27 41.21312 -1.34912 38983 ft 470 kts 79°
2026-05-07 12:28 41.22070 -1.30688 39200 ft 471 kts 80°
2026-05-07 12:28 41.22828 -1.26454 39416 ft 471 kts 79°
2026-05-07 12:28 41.23583 -1.22222 39593 ft 472 kts 79°
2026-05-07 12:28 41.24339 -1.17980 39782 ft 472 kts 79°
2026-05-07 12:29 41.25095 -1.13726 39951 ft 473 kts 79°
2026-05-07 12:29 41.26606 -1.05203 39973 ft 472 kts 79°
2026-05-07 12:30 41.28094 -0.96779 39974 ft 465 kts 79°
2026-05-07 12:30 41.29561 -0.88436 39981 ft 462 kts 79°
2026-05-07 12:31 41.31012 -0.80131 39978 ft 460 kts 80°
2026-05-07 12:31 41.32453 -0.71844 39983 ft 459 kts 80°
2026-05-07 12:32 41.33890 -0.63559 39982 ft 460 kts 80°
2026-05-07 12:32 41.35265 -0.55249 39978 ft 459 kts 85°
2026-05-07 12:33 41.35411 -0.42654 39985 ft 457 kts 95°
2026-05-07 12:33 41.35279 -0.34181 39984 ft 459 kts 94°
2026-05-07 12:34 41.35187 -0.25672 39985 ft 461 kts 94°
2026-05-07 12:34 41.35113 -0.17113 39986 ft 463 kts 94°
2026-05-07 12:35 41.35036 -0.08538 39979 ft 465 kts 94°
2026-05-07 12:35 41.34950 0.00067 39980 ft 465 kts 94°
2026-05-07 12:36 41.34856 0.08677 39965 ft 465 kts 94°
2026-05-07 12:36 41.34756 0.17284 39982 ft 465 kts 94°
2026-05-07 12:37 41.34649 0.25892 39978 ft 465 kts 94°
2026-05-07 12:37 41.34531 0.34494 39982 ft 465 kts 95°
2026-05-07 12:38 41.34406 0.43112 39983 ft 465 kts 95°
2026-05-07 12:38 41.34277 0.51721 39979 ft 465 kts 95°
2026-05-07 12:39 41.34139 0.60329 39982 ft 465 kts 95°
2026-05-07 12:39 41.33992 0.68948 39981 ft 466 kts 95°
2026-05-07 12:40 41.33841 0.77566 39977 ft 466 kts 95°
2026-05-07 12:40 41.33683 0.86179 39980 ft 466 kts 95°
2026-05-07 12:41 41.33515 0.94802 39987 ft 466 kts 95°
2026-05-07 12:41 41.33345 1.03384 39985 ft 467 kts 95°
2026-05-07 12:42 41.33164 1.12026 39994 ft 467 kts 95°
2026-05-07 12:42 41.32985 1.20677 39989 ft 468 kts 95°
2026-05-07 12:43 41.32806 1.29338 39993 ft 469 kts 95°
2026-05-07 12:43 41.32619 1.38025 39993 ft 469 kts 95°
2026-05-07 12:44 41.32426 1.46705 40001 ft 470 kts 96°
2026-05-07 12:44 41.32225 1.55386 40001 ft 470 kts 96°
2026-05-07 12:45 41.32018 1.64092 39999 ft 471 kts 96°
2026-05-07 12:45 41.31799 1.72799 40001 ft 471 kts 96°
2026-05-07 12:46 41.31557 1.81495 40010 ft 470 kts 96°
2026-05-07 12:46 41.31308 1.90191 40009 ft 471 kts 96°
2026-05-07 12:47 41.31056 1.98885 40018 ft 470 kts 96°
2026-05-07 12:47 41.30801 2.07578 40012 ft 470 kts 95°
2026-05-07 12:48 41.31521 2.16265 40026 ft 477 kts 79°
2026-05-07 12:48 41.33109 2.24839 40012 ft 478 kts 78°
2026-05-07 12:49 41.34703 2.33366 40009 ft 478 kts 79°
2026-05-07 12:49 41.36252 2.41980 40010 ft 478 kts 79°
2026-05-07 12:50 41.37779 2.50655 40011 ft 479 kts 79°
2026-05-07 12:50 41.39281 2.59252 40003 ft 480 kts 79°
2026-05-07 12:51 41.40790 2.67914 40000 ft 480 kts 79°
2026-05-07 12:51 41.42296 2.76596 39999 ft 481 kts 79°
2026-05-07 12:52 41.43797 2.85287 40001 ft 481 kts 80°
2026-05-07 12:52 41.45293 2.93988 39999 ft 482 kts 80°
2026-05-07 12:53 41.46783 3.02702 40002 ft 482 kts 80°
2026-05-07 12:53 41.48268 3.11426 39996 ft 483 kts 80°
2026-05-07 12:54 41.49748 3.20165 40002 ft 483 kts 80°
2026-05-07 12:54 41.51205 3.28914 39999 ft 483 kts 80°
2026-05-07 12:55 41.52653 3.37677 40001 ft 484 kts 80°
2026-05-07 12:55 41.54099 3.46451 39993 ft 484 kts 80°
2026-05-07 12:56 41.55548 3.55236 39989 ft 485 kts 80°
2026-05-07 12:56 41.56993 3.63964 39991 ft 485 kts 80°
2026-05-07 12:57 41.58438 3.72756 39992 ft 485 kts 80°
2026-05-07 12:57 41.59878 3.81571 39991 ft 485 kts 80°
2026-05-07 12:58 41.61311 3.90382 39994 ft 485 kts 81°
2026-05-07 12:58 41.62723 3.99192 39990 ft 485 kts 81°
2026-05-07 12:59 41.64128 4.08012 39982 ft 484 kts 81°
2026-05-07 12:59 41.65525 4.16819 39988 ft 484 kts 81°
2026-05-07 13:00 41.66914 4.25627 39994 ft 484 kts 81°
2026-05-07 13:00 41.68290 4.34393 39987 ft 485 kts 81°
2026-05-07 13:01 41.69667 4.43216 39990 ft 485 kts 81°
2026-05-07 13:01 41.71041 4.52053 39987 ft 485 kts 81°
2026-05-07 13:02 41.72533 4.60866 39965 ft 489 kts 70°
2026-05-07 13:02 41.74167 4.64844 40008 ft 489 kts 51°
2026-05-07 13:02 41.76510 4.68116 39988 ft 486 kts 35°
2026-05-07 13:03 41.79367 4.70452 39997 ft 478 kts 20°
2026-05-07 13:03 41.82411 4.72221 40003 ft 478 kts 18°
2026-05-07 13:03 41.88587 4.75612 39994 ft 480 kts 18°
2026-05-07 13:04 41.94769 4.79066 39990 ft 483 kts 18°
2026-05-07 13:04 42.00962 4.82623 39989 ft 485 kts 19°
2026-05-07 13:05 42.07163 4.86223 40001 ft 485 kts 19°
2026-05-07 13:05 42.13310 4.89799 39983 ft 476 kts 19°
2026-05-07 13:06 42.19363 4.93321 39990 ft 473 kts 19°
2026-05-07 13:06 42.25408 4.96842 39992 ft 473 kts 19°
2026-05-07 13:07 42.31451 5.00371 39988 ft 473 kts 19°
2026-05-07 13:07 42.37496 5.03910 39991 ft 474 kts 19°
2026-05-07 13:08 42.43463 5.07574 39991 ft 476 kts 24°
2026-05-07 13:08 42.49280 5.11921 39990 ft 479 kts 26°
2026-05-07 13:09 42.55066 5.16406 39991 ft 479 kts 26°
2026-05-07 13:09 42.60882 5.20849 39991 ft 480 kts 26°
2026-05-07 13:10 42.66716 5.25264 39993 ft 480 kts 26°
2026-05-07 13:10 42.72557 5.29686 39991 ft 480 kts 26°
2026-05-07 13:11 42.78395 5.34112 39995 ft 480 kts 26°
2026-05-07 13:11 42.84227 5.38549 39991 ft 480 kts 26°
2026-05-07 13:12 42.90063 5.43003 39997 ft 480 kts 26°
2026-05-07 13:12 42.95887 5.47451 39988 ft 480 kts 26°
2026-05-07 13:13 43.01696 5.51899 39992 ft 478 kts 26°
2026-05-07 13:13 43.07459 5.56434 39980 ft 479 kts 32°
2026-05-07 13:14 43.11644 5.61412 39987 ft 482 kts 47°
2026-05-07 13:14 43.15598 5.68816 39993 ft 481 kts 55°
2026-05-07 13:15 43.19436 5.76326 39998 ft 481 kts 53°
2026-05-07 13:15 43.22801 5.84222 39992 ft 480 kts 69°
2026-05-07 13:16 43.23823 5.88571 39981 ft 479 kts 80°
2026-05-07 13:16 43.24460 5.93035 40003 ft 477 kts 82°
2026-05-07 13:16 43.25621 6.01998 39988 ft 477 kts 82°
2026-05-07 13:17 43.26803 6.10971 39985 ft 478 kts 81°
2026-05-07 13:17 43.28022 6.19940 39981 ft 479 kts 81°
2026-05-07 13:18 43.29250 6.28911 39979 ft 478 kts 81°
2026-05-07 13:18 43.30465 6.37845 39971 ft 480 kts 81°
2026-05-07 13:19 43.31680 6.46849 39962 ft 480 kts 81°
2026-05-07 13:19 43.32896 6.55934 39976 ft 481 kts 81°
2026-05-07 13:20 43.34094 6.64920 39977 ft 481 kts 81°
2026-05-07 13:20 43.35289 6.73966 39987 ft 482 kts 82°
2026-05-07 13:21 43.36484 6.83028 39981 ft 482 kts 81°
2026-05-07 13:21 43.38677 6.91725 39991 ft 483 kts 62°
2026-05-07 13:22 43.43529 7.01453 39986 ft 483 kts 52°
2026-05-07 13:22 43.51459 7.16369 39992 ft 483 kts 53°
2026-05-07 13:23 43.59277 7.31446 39993 ft 484 kts 53°
2026-05-07 13:23 43.66170 7.44776 39994 ft 484 kts 53°
2026-05-07 13:24 43.73979 7.59943 39993 ft 484 kts 53°
2026-05-07 13:24 43.80301 7.72330 39987 ft 484 kts 52°
2026-05-07 13:25 43.84883 7.78950 39985 ft 477 kts 34°
2026-05-07 13:25 43.92211 7.86718 39978 ft 479 kts 42°
2026-05-07 13:26 43.94364 7.90256 39986 ft 482 kts 56°
2026-05-07 13:26 43.95965 7.94321 39994 ft 482 kts 68°
2026-05-07 13:26 43.98214 8.05495 40000 ft 480 kts 77°
2026-05-07 13:27 44.01433 8.23480 39997 ft 479 kts 76°
2026-05-07 13:27 44.04749 8.41414 40011 ft 479 kts 76°
2026-05-07 13:28 44.08040 8.59346 40020 ft 479 kts 76°
2026-05-07 13:28 44.11304 8.77328 40019 ft 479 kts 77°
2026-05-07 13:29 44.14541 8.95332 40020 ft 480 kts 77°
2026-05-07 13:29 44.17753 9.13378 40020 ft 480 kts 77°
2026-05-07 13:30 44.20925 9.31376 40019 ft 481 kts 77°
2026-05-07 13:30 44.24087 9.49503 40020 ft 482 kts 77°
2026-05-07 13:31 44.25995 9.60525 39987 ft 465 kts 77°
2026-05-07 13:31 44.27211 9.67577 39959 ft 442 kts 77°
2026-05-07 13:31 44.27916 9.71682 39965 ft 430 kts 77°
2026-05-07 13:32 44.29705 9.82165 40027 ft 438 kts 77°
2026-05-07 13:32 44.31128 9.90542 40046 ft 449 kts 77°
2026-05-07 13:32 44.32577 9.99110 40046 ft 458 kts 77°
2026-05-07 13:33 44.34282 10.09234 39990 ft 449 kts 78°
2026-05-07 13:33 44.34986 10.13427 39693 ft 438 kts 78°
2026-05-07 13:33 44.35675 10.17544 39197 ft 434 kts 78°
2026-05-07 13:34 44.36359 10.21641 38579 ft 433 kts 78°
2026-05-07 13:34 44.37714 10.29799 37504 ft 428 kts 78°
2026-05-07 13:34 44.38382 10.33836 36992 ft 424 kts 78°
2026-05-07 13:35 44.39042 10.37831 36473 ft 421 kts 78°
2026-05-07 13:35 44.39697 10.41810 35996 ft 418 kts 78°
2026-05-07 13:35 44.40346 10.45754 35445 ft 417 kts 78°
2026-05-07 13:35 44.40997 10.49726 34781 ft 419 kts 79°
2026-05-07 13:36 44.41646 10.53689 34241 ft 418 kts 79°
2026-05-07 13:36 44.42294 10.57659 33746 ft 415 kts 79°
2026-05-07 13:36 44.42933 10.61581 33311 ft 412 kts 79°
2026-05-07 13:36 44.43565 10.65465 32919 ft 406 kts 79°
2026-05-07 13:37 44.44188 10.69296 32515 ft 402 kts 79°
2026-05-07 13:37 44.44797 10.73050 32068 ft 399 kts 79°
2026-05-07 13:37 44.45413 10.76870 31601 ft 397 kts 79°
2026-05-07 13:37 44.46010 10.80581 31193 ft 396 kts 80°
2026-05-07 13:38 44.46612 10.84339 30905 ft 393 kts 80°
2026-05-07 13:38 44.47207 10.88053 30701 ft 389 kts 80°
2026-05-07 13:38 44.47796 10.91725 30475 ft 386 kts 81°
2026-05-07 13:38 44.48381 10.95392 30188 ft 384 kts 81°
2026-05-07 13:39 44.48962 10.99029 29909 ft 381 kts 81°
2026-05-07 13:39 44.49537 11.02643 29586 ft 380 kts 81°
2026-05-07 13:39 44.50569 11.09169 29060 ft 376 kts 81°
2026-05-07 13:39 44.51690 11.16282 28450 ft 372 kts 81°
2026-05-07 13:40 44.52796 11.23314 27866 ft 367 kts 81°
2026-05-07 13:40 44.53643 11.28766 27414 ft 363 kts 83°
2026-05-07 13:40 44.53941 11.32255 27094 ft 358 kts 91°
2026-05-07 13:40 44.54170 11.38362 26582 ft 354 kts 92°
2026-05-07 13:41 44.54410 11.45201 26034 ft 350 kts 92°
2026-05-07 13:41 44.54682 11.51990 25434 ft 347 kts 92°
2026-05-07 13:41 44.54962 11.58708 24869 ft 343 kts 92°
2026-05-07 13:41 44.55204 11.63705 24407 ft 344 kts 84°
2026-05-07 13:42 44.56045 11.66853 24085 ft 348 kts 57°
2026-05-07 13:42 44.57659 11.69335 23796 ft 343 kts 34°
2026-05-07 13:42 44.60073 11.71671 23464 ft 339 kts 30°
2026-05-07 13:42 44.64012 11.75289 22891 ft 336 kts 30°
2026-05-07 13:43 44.67883 11.78898 22369 ft 332 kts 31°
2026-05-07 13:43 44.71685 11.82490 21833 ft 328 kts 31°
2026-05-07 13:43 44.75458 11.86070 21315 ft 324 kts 31°
2026-05-07 13:43 44.78003 11.88489 20969 ft 321 kts 31°
2026-05-07 13:44 44.81690 11.91991 20432 ft 318 kts 31°
2026-05-07 13:44 44.85327 11.95447 19951 ft 313 kts 31°
2026-05-07 13:44 44.88928 11.98873 19411 ft 311 kts 31°
2026-05-07 13:44 44.91780 12.01593 19000 ft 308 kts 31°
2026-05-07 13:45 44.93374 12.03611 18642 ft 311 kts 56°
2026-05-07 13:45 44.94225 12.06363 18371 ft 305 kts 83°
2026-05-07 13:45 44.94192 12.09279 18143 ft 292 kts 110°
2026-05-07 13:45 44.93373 12.11798 17864 ft 278 kts 134°
2026-05-07 13:46 44.91993 12.13588 17568 ft 264 kts 156°
2026-05-07 13:46 44.90327 12.14491 17273 ft 252 kts 177°
2026-05-07 13:46 44.88615 12.14589 16966 ft 242 kts 191°
2026-05-07 13:46 44.87003 12.14064 16503 ft 236 kts 208°
2026-05-07 13:47 44.85455 12.12745 15886 ft 239 kts 216°
2026-05-07 13:47 44.83414 12.10808 15028 ft 246 kts 216°
2026-05-07 13:47 44.81980 12.09441 14433 ft 251 kts 216°
2026-05-07 13:47 44.80524 12.08058 13837 ft 255 kts 216°
2026-05-07 13:48 44.79061 12.06631 13233 ft 257 kts 221°
2026-05-07 13:48 44.77970 12.04665 12670 ft 257 kts 243°
2026-05-07 13:48 44.77421 12.02277 12121 ft 259 kts 260°
2026-05-07 13:48 44.77465 11.99733 11574 ft 263 kts 279°
2026-05-07 13:49 44.78142 11.97331 11019 ft 269 kts 299°
2026-05-07 13:49 44.79426 11.95405 10483 ft 275 kts 322°
2026-05-07 13:49 44.81151 11.94341 10283 ft 268 kts 345°
2026-05-07 13:49 44.82972 11.94356 10187 ft 258 kts 12°
2026-05-07 13:50 44.84619 11.95335 10196 ft 259 kts 28°
2026-05-07 13:50 44.86491 11.96962 10177 ft 260 kts 31°
2026-05-07 13:50 44.88440 11.98697 10214 ft 285 kts 31°
2026-05-07 13:50 44.91263 12.01157 10196 ft 293 kts 28°
2026-05-07 13:51 44.93165 12.01976 10161 ft 283 kts 359°
2026-05-07 13:51 44.95105 12.01576 9905 ft 284 kts 338°
2026-05-07 13:51 44.97062 12.01064 9642 ft 294 kts
2026-05-07 13:51 44.98972 12.02040 9399 ft 296 kts 36°
2026-05-07 13:52 45.00785 12.04346 9132 ft 291 kts 42°
2026-05-07 13:52 45.03802 12.08077 8608 ft 285 kts 39°
2026-05-07 13:52 45.06867 12.11553 8095 ft 280 kts 37°
2026-05-07 13:52 45.09925 12.14881 7584 ft 275 kts 37°
2026-05-07 13:53 45.12967 12.18140 7087 ft 273 kts 36°
2026-05-07 13:53 45.16003 12.21376 6604 ft 274 kts 36°
2026-05-07 13:53 45.19074 12.24646 6122 ft 277 kts 37°
2026-05-07 13:53 45.22145 12.27920 5616 ft 274 kts 37°
2026-05-07 13:54 45.25168 12.31144 5131 ft 268 kts 37°
2026-05-07 13:54 45.27108 12.33215 5073 ft 250 kts 37°
2026-05-07 13:54 45.28447 12.34716 5058 ft 240 kts 41°
2026-05-07 13:54 45.30613 12.37492 5028 ft 230 kts 43°
2026-05-07 13:55 45.32972 12.40559 5041 ft 230 kts 43°
2026-05-07 13:55 45.35344 12.43626 5049 ft 231 kts 42°
2026-05-07 13:55 45.37733 12.46710 5072 ft 232 kts 42°
2026-05-07 13:55 45.40133 12.49803 5071 ft 233 kts 42°
2026-05-07 13:56 45.42151 12.52408 5068 ft 232 kts 42°
2026-05-07 13:56 45.43548 12.54211 5037 ft 219 kts 42°
2026-05-07 13:56 45.44697 12.55571 5013 ft 212 kts 32°
2026-05-07 13:56 45.46287 12.56782 5024 ft 212 kts 26°
2026-05-07 13:57 45.48729 12.58506 5040 ft 212 kts 26°
2026-05-07 13:57 45.50051 12.59455 5033 ft 203 kts 26°
2026-05-07 13:57 45.52500 12.61241 4591 ft 199 kts 27°
2026-05-07 13:57 45.53724 12.62142 4354 ft 197 kts 27°
2026-05-07 13:58 45.54931 12.63034 4197 ft 193 kts 27°
2026-05-07 13:58 45.56106 12.63903 4082 ft 188 kts 27°
2026-05-07 13:58 45.57235 12.64729 3976 ft 181 kts 27°
2026-05-07 13:58 45.58401 12.65149 3872 ft 170 kts 349°
2026-05-07 13:59 45.59421 12.64380 3879 ft 169 kts 313°
2026-05-07 13:59 45.59962 12.62911 3815 ft 168 kts 287°
2026-05-07 13:59 45.60629 12.60325 3672 ft 171 kts 289°
2026-05-07 13:59 45.61346 12.57565 3452 ft 171 kts 289°
2026-05-07 14:00 45.61745 12.56021 3353 ft 162 kts 289°
2026-05-07 14:00 45.62120 12.54565 3239 ft 150 kts 289°
2026-05-07 14:00 45.62479 12.53160 3188 ft 153 kts 288°
2026-05-07 14:00 45.62655 12.51721 3053 ft 143 kts 254°
2026-05-07 14:01 45.62122 12.50568 2938 ft 143 kts 230°
2026-05-07 14:01 45.61536 12.49410 2747 ft 143 kts 230°
2026-05-07 14:01 45.60882 12.48357 2534 ft 140 kts 226°
2026-05-07 14:01 45.60198 12.47370 2375 ft 140 kts 223°
2026-05-07 14:02 45.59486 12.46408 2183 ft 141 kts 221°
2026-05-07 14:02 45.58773 12.45467 1991 ft 139 kts 220°
2026-05-07 14:02 45.58055 12.44545 1802 ft 138 kts 220°
2026-05-07 14:02 45.57344 12.43626 1624 ft 138 kts 219°
2026-05-07 14:03 45.56629 12.42701 1444 ft 140 kts 220°
2026-05-07 14:03 45.56150 12.42085 1310 ft 138 kts 220°
2026-05-07 14:03 45.55449 12.41182 1117 ft 134 kts 220°
2026-05-07 14:03 45.54745 12.40277 978 ft 139 kts 220°
2026-05-07 14:04 45.54030 12.39358 770 ft 136 kts 220°
2026-05-07 14:04 45.53329 12.38454 584 ft 137 kts 220°
2026-05-07 14:04 45.52615 12.37547 364 ft 137 kts 220°
2026-05-07 14:04 45.51918 12.36653 138 ft 134 kts 220°
2026-05-07 14:05 45.51248 12.35774 19 ft 126 kts 221°
2026-05-07 14:05 45.50707 12.35085 12 ft 73 kts 221°
2026-05-07 14:05 45.50485 12.34804 12 ft 21 kts 221°
2026-05-07 14:05 45.50411 12.34665 16 ft 14 kts 272°
2026-05-07 14:06 45.50432 12.34541 17 ft 13 kts 247°
2026-05-07 14:06 45.50371 12.34445 19 ft 13 kts 232°
2026-05-07 14:06 45.50401 12.34351 19 ft 13 kts 343°
2026-05-07 14:06 45.50501 12.34341 16 ft 16 kts
2026-05-07 14:07 45.50592 12.34423 14 ft 16 kts 63°
2026-05-07 14:07 45.50601 12.34581 15 ft 16 kts 84°
2026-05-07 14:07 45.50680 12.34655 12 ft 16 kts 341°
2026-05-07 14:07 45.50709 12.34593 12 ft 0 kts 273°
2026-05-07 14:08 45.50692 12.34561 12 ft 6 kts 227°
2026-05-07 14:08 45.50677 12.34540 12 ft 1 kts 224°
2026-05-07 14:08 45.50675 12.34537 12 ft 0 kts 224°
2026-05-07 14:10 45.50676 12.34537 12 ft 0 kts 223°